| time (UTC) | temp F | wind direction | speed MPH | gust MPH | rain 1hr in | rain 24hr in | rain mn in | humidity % | barometer mb |
| 20260505100040 | 56 | 196 | 5.0 | 9.0 | 0.00 | 0.00 | 0.00 | 67 | 1001.1 |
| 20260505095018 | 56 | 192 | 4.0 | 8.0 | 0.00 | 0.00 | 0.00 | 67 | 1001.2 |
| 20260505094018 | 56 | 196 | 4.0 | 6.0 | 0.00 | 0.00 | 0.00 | 67 | 1001.3 |
| 20260505093019 | 56 | 200 | 3.0 | 7.0 | 0.00 | 0.00 | 0.00 | 67 | 1001.4 |
| 20260505092019 | 56 | 201 | 3.0 | 6.0 | 0.00 | 0.00 | 0.00 | 67 | 1001.4 |
| 20260505091018 | 56 | 205 | 4.0 | 8.0 | 0.00 | 0.00 | 0.00 | 66 | 1001.4 |
| 20260505090019 | 56 | 199 | 5.0 | 9.0 | 0.00 | 0.00 | 0.00 | 66 | 1001.4 |
| 20260505085019 | 56 | 191 | 4.0 | 8.0 | 0.00 | 0.00 | 0.00 | 66 | 1001.3 |
| 20260505084020 | 56 | 198 | 4.0 | 7.0 | 0.00 | 0.00 | 0.00 | 67 | 1001.4 |
| 20260505083019 | 56 | 199 | 4.0 | 7.0 | 0.00 | 0.00 | 0.00 | 67 | 1001.4 |
| 20260505082019 | 56 | 208 | 4.0 | 9.0 | 0.00 | 0.00 | 0.00 | 67 | 1001.5 |
| 20260505081021 | 56 | 193 | 4.0 | 7.0 | 0.00 | 0.00 | 0.00 | 68 | 1001.3 |
| 20260505080020 | 55 | 204 | 4.0 | 7.0 | 0.00 | 0.00 | 0.00 | 69 | 1001.4 |
| 20260505075021 | 55 | 195 | 4.0 | 7.0 | 0.00 | 0.00 | 0.00 | 70 | 1001.4 |
| 20260505074020 | 55 | 191 | 4.0 | 7.0 | 0.00 | 0.00 | 0.00 | 70 | 1001.5 |
| 20260505073040 | 55 | 196 | 3.0 | 5.0 | 0.00 | 0.00 | 0.00 | 70 | 1001.6 |
| 20260505072040 | 55 | 195 | 3.0 | 7.0 | 0.00 | 0.00 | 0.00 | 69 | 1001.7 |
| 20260505071022 | 56 | 213 | 4.0 | 8.0 | 0.00 | 0.00 | 0.00 | 67 | 1001.9 |
| 20260505070022 | 56 | 207 | 3.0 | 6.0 | 0.00 | 0.00 | 0.00 | 66 | 1001.9 |
| 20260505065021 | 57 | 193 | 3.0 | 6.0 | 0.00 | 0.00 | 0.00 | 66 | 1001.8 |
| 20260505064021 | 57 | 205 | 3.0 | 7.0 | 0.00 | 0.00 | 0.00 | 65 | 1001.8 |
| 20260505063022 | 57 | 190 | 3.0 | 6.0 | 0.00 | 0.00 | 0.00 | 64 | 1001.8 |
| 20260505062041 | 57 | 201 | 3.0 | 7.0 | 0.00 | 0.00 | 0.00 | 65 | 1001.8 |
| 20260505061022 | 57 | 200 | 3.0 | 5.0 | 0.00 | 0.00 | 0.00 | 64 | 1001.8 |
| 20260505060022 | 58 | 197 | 3.0 | 7.0 | 0.00 | 0.00 | 0.00 | 64 | 1001.9 |
| 20260505055023 | 58 | 195 | 3.0 | 7.0 | 0.00 | 0.00 | 0.00 | 63 | 1002.0 |
| 20260505054022 | 58 | 198 | 3.0 | 7.0 | 0.00 | 0.00 | 0.00 | 63 | 1002.1 |
| 20260505053022 | 58 | 199 | 3.0 | 6.0 | 0.00 | 0.00 | 0.00 | 63 | 1002.2 |
| 20260505052023 | 58 | 206 | 3.0 | 6.0 | 0.00 | 0.00 | 0.00 | 64 | 1002.3 |
| 20260505051016 | 58 | 198 | 3.0 | 6.0 | 0.00 | 0.00 | 0.00 | 64 | 1002.4 |
| 20260505041019 | 58 | 203 | 3.0 | 6.0 | 0.00 | 0.00 | 0.00 | 65 | 1002.7 |
| 20260505040038 | 58 | 196 | 2.0 | 6.0 | 0.00 | 0.00 | 0.00 | 66 | 1002.8 |
| 20260505035018 | 57 | 188 | 2.0 | 5.0 | 0.00 | 0.00 | 0.00 | 67 | 1002.7 |
| 20260505034018 | 57 | 188 | 2.0 | 4.0 | 0.00 | 0.00 | 0.00 | 69 | 1002.8 |
| 20260505033019 | 57 | 208 | 2.0 | 4.0 | 0.00 | 0.00 | 0.00 | 69 | 1002.8 |
| 20260505032040 | 56 | 201 | 3.0 | 6.0 | 0.00 | 0.00 | 0.00 | 70 | 1003.0 |
| 20260505031017 | 55 | 197 | 2.0 | 3.0 | 0.00 | 0.00 | 0.00 | 73 | 1003.0 |
| 20260505030020 | 55 | 203 | 1.0 | 2.0 | 0.00 | 0.00 | 0.00 | 73 | 1003.1 |
| 20260505025019 | 55 | 193 | 1.0 | 3.0 | 0.00 | 0.00 | 0.00 | 74 | 1003.2 |
| 20260505024017 | 55 | 259 | 1.0 | 2.0 | 0.00 | 0.00 | 0.00 | 73 | 1003.2 |
| 20260505023019 | 54 | 176 | 1.0 | 3.0 | 0.00 | 0.00 | 0.00 | 74 | 1003.2 |
| 20260505022017 | 55 | 189 | 1.0 | 2.0 | 0.00 | 0.00 | 0.00 | 74 | 1003.3 |
| 20260505021016 | 56 | 0.0 | 0.0 | 0.00 | 0.00 | 0.00 | 74 | 1003.5 | |
| 20260505020018 | 56 | 284 | 0.0 | 1.0 | 0.00 | 0.00 | 0.00 | 73 | 1003.5 |
| 20260505015018 | 57 | 228 | 0.0 | 1.0 | 0.00 | 0.00 | 0.00 | 73 | 1003.5 |
| 20260505014037 | 57 | 220 | 0.0 | 2.0 | 0.00 | 0.00 | 0.00 | 72 | 1003.5 |
| 20260505013019 | 57 | 196 | 0.0 | 1.0 | 0.00 | 0.00 | 0.00 | 72 | 1003.5 |
| 20260505012017 | 58 | 0.0 | 0.0 | 0.00 | 0.00 | 0.00 | 71 | 1003.5 | |
| 20260505011018 | 58 | 212 | 1.0 | 2.0 | 0.00 | 0.00 | 0.00 | 71 | 1003.7 |
| 20260505010019 | 58 | 180 | 1.0 | 3.0 | 0.00 | 0.00 | 0.00 | 70 | 1003.6 |
| 20260505005058 | 59 | 180 | 1.0 | 4.0 | 0.00 | 0.00 | 0.00 | 70 | 1003.6 |
| 20260505004018 | 59 | 169 | 2.0 | 4.0 | 0.00 | 0.00 | 0.00 | 69 | 1003.5 |
| 20260505003018 | 59 | 163 | 2.0 | 5.0 | 0.00 | 0.00 | 0.00 | 69 | 1003.5 |
| 20260505002018 | 60 | 165 | 2.0 | 5.0 | 0.00 | 0.00 | 0.00 | 68 | 1003.5 |
| 20260505001058 | 60 | 159 | 3.0 | 6.0 | 0.00 | 0.00 | 0.00 | 67 | 1003.4 |
| 20260505000039 | 60 | 162 | 3.0 | 5.0 | 0.00 | 0.00 | 0.00 | 67 | 1003.3 |
| 20260504235019 | 61 | 161 | 3.0 | 5.0 | 0.00 | 0.00 | 0.00 | 66 | 1003.2 |
| 20260504234018 | 61 | 168 | 3.0 | 6.0 | 0.00 | 0.00 | 0.00 | 65 | 1003.2 |
| 20260504233039 | 61 | 169 | 3.0 | 5.0 | 0.00 | 0.00 | 0.00 | 65 | 1003.1 |
| 20260504232020 | 61 | 163 | 3.0 | 7.0 | 0.00 | 0.00 | 0.00 | 66 | 1003.1 |
| 20260504231018 | 61 | 163 | 3.0 | 5.0 | 0.00 | 0.00 | 0.00 | 65 | 1003.2 |
| 20260504230021 | 61 | 169 | 3.0 | 7.0 | 0.00 | 0.00 | 0.00 | 64 | 1003.3 |
| 20260504225017 | 62 | 173 | 3.0 | 6.0 | 0.00 | 0.00 | 0.00 | 64 | 1003.4 |
| 20260504224017 | 62 | 179 | 3.0 | 5.0 | 0.00 | 0.00 | 0.00 | 64 | 1003.4 |
| 20260504223020 | 62 | 170 | 2.0 | 6.0 | 0.00 | 0.00 | 0.00 | 64 | 1003.3 |
| 20260504222017 | 63 | 168 | 2.0 | 6.0 | 0.00 | 0.00 | 0.00 | 61 | 1003.3 |
| 20260504221018 | 64 | 171 | 3.0 | 7.0 | 0.00 | 0.00 | 0.00 | 60 | 1003.3 |
| 20260504220018 | 64 | 211 | 2.0 | 6.0 | 0.00 | 0.00 | 0.00 | 57 | 1003.2 |
| 20260504215019 | 64 | 203 | 2.0 | 7.0 | 0.00 | 0.00 | 0.00 | 57 | 1003.2 |
| 20260504214018 | 64 | 187 | 2.0 | 6.0 | 0.00 | 0.00 | 0.00 | 57 | 1003.2 |
| 20260504213018 | 64 | 193 | 2.0 | 6.0 | 0.00 | 0.00 | 0.00 | 57 | 1003.3 |
| 20260504212020 | 65 | 215 | 2.0 | 5.0 | 0.00 | 0.00 | 0.00 | 55 | 1003.3 |
| 20260504211020 | 65 | 196 | 2.0 | 7.0 | 0.00 | 0.00 | 0.00 | 55 | 1003.4 |
| 20260504210039 | 64 | 232 | 2.0 | 5.0 | 0.00 | 0.00 | 0.00 | 55 | 1003.4 |
| 20260504205040 | 65 | 207 | 2.0 | 6.0 | 0.00 | 0.00 | 0.00 | 54 | 1003.4 |
| 20260504204016 | 64 | 225 | 2.0 | 4.0 | 0.00 | 0.00 | 0.00 | 56 | 1003.5 |
| 20260504203039 | 64 | 214 | 2.0 | 7.0 | 0.00 | 0.00 | 0.00 | 57 | 1003.6 |
| 20260504202020 | 63 | 208 | 2.0 | 5.0 | 0.00 | 0.00 | 0.00 | 57 | 1003.7 |
| 20260504201021 | 63 | 255 | 2.0 | 5.0 | 0.00 | 0.00 | 0.00 | 57 | 1003.7 |
| 20260504200016 | 62 | 222 | 2.0 | 5.0 | 0.00 | 0.00 | 0.00 | 59 | 1003.8 |
| 20260504195020 | 62 | 198 | 3.0 | 8.0 | 0.00 | 0.00 | 0.00 | 60 | 1003.9 |
| 20260504194041 | 61 | 197 | 3.0 | 8.0 | 0.00 | 0.00 | 0.00 | 62 | 1004.0 |
| 20260504193038 | 60 | 206 | 3.0 | 6.0 | 0.00 | 0.00 | 0.00 | 63 | 1004.1 |
| 20260504192038 | 60 | 202 | 3.0 | 7.0 | 0.00 | 0.00 | 0.00 | 63 | 1004.3 |
| 20260504191018 | 59 | 200 | 3.0 | 8.0 | 0.00 | 0.00 | 0.00 | 65 | 1004.4 |
| 20260504190019 | 58 | 275 | 3.0 | 8.0 | 0.00 | 0.00 | 0.00 | 66 | 1004.6 |
| 20260504185018 | 58 | 191 | 3.0 | 8.0 | 0.00 | 0.00 | 0.00 | 67 | 1004.9 |
| 20260504184041 | 58 | 190 | 3.0 | 7.0 | 0.00 | 0.00 | 0.00 | 69 | 1005.0 |
| 20260504183019 | 57 | 212 | 2.0 | 6.0 | 0.00 | 0.00 | 0.00 | 70 | 1005.0 |
| 20260504182020 | 57 | 243 | 3.0 | 7.0 | 0.00 | 0.00 | 0.00 | 70 | 1005.1 |
| 20260504181020 | 56 | 195 | 3.0 | 7.0 | 0.00 | 0.00 | 0.00 | 71 | 1005.1 |
| 20260504180039 | 56 | 210 | 2.0 | 7.0 | 0.00 | 0.00 | 0.00 | 72 | 1005.2 |
| 20260504175017 | 56 | 212 | 2.0 | 5.0 | 0.00 | 0.00 | 0.00 | 72 | 1005.2 |
| 20260504174019 | 56 | 223 | 2.0 | 7.0 | 0.00 | 0.00 | 0.00 | 70 | 1005.3 |
| 20260504173020 | 56 | 271 | 2.0 | 6.0 | 0.00 | 0.00 | 0.00 | 68 | 1005.3 |
| 20260504172016 | 55 | 229 | 3.0 | 6.0 | 0.00 | 0.00 | 0.00 | 68 | 1005.4 |
| 20260504171020 | 55 | 274 | 4.0 | 10.0 | 0.00 | 0.00 | 0.00 | 68 | 1005.4 |
| 20260504151028 | 50 | 269 | 2.0 | 3.0 | 0.00 | 0.00 | 0.00 | 87 | 1005.5 |
| 20260504141051 | 48 | 274 | 2.0 | 4.0 | 0.00 | 0.00 | 0.00 | 91 | 1005.3 |